STARLINK-32203, 60331

Orbit data source: Space-Track

STARLINK-32203, 60331 is a payload satellite owned by SpaceX/Seattle (US) in LEO that was launched on Fri, 02 Aug 2024 UTC via an FALCON 9 launch vehicle from the Air Force Eastern Test Range (AFETR). Payload-class satellites include a variety of spacecraft equipped with specific instruments for various scientific and technological missions. These include communications satellites like Starlink; space stations such as the ISS; scientific satellites like the Hubble; Earth observation satellites from companies like Planet Labs, Umbra, and HawkEye 360; GPS; miniature CubeSats for education and research; and military/defense satellites.

Loading next visibility...
Identifier
60331, 2024-136C
Orbit
LEO
Country
Flag of USUS
Related business
Manufacturer
SpaceX/Seattle
Mission
Operational Commercial Communications
Bus & Motor
STARLINK V2M, Unknown motor
Mass
730 kg wet, ~700 kg dry
Launch date (UTC)
2024-08-02 (2 years ago)
Launch vehicle
FALCON 9
Launch site
Air Force Eastern Test Range (AFETR)
Object type
Payload
Rocket body
Debris
Shape & HBR
Box + 2 Pan, 17.7 m
Radar Cross Section
33.884 m², Large (>1 m²)

Expand to show TLE details & history
Last TLE update: 1 day ago

TLE from 1 day ago
0 STARLINK-32203
1 60331U 24136C   26170.70634567  .00002155  00000-0  74885-4 0  9992
2 60331  53.1593 311.1688 0000955 133.8374 226.2708 15.34398865105439
Epoch: 2026-06-19T16:57Z
TLE epoch observation values (Epoch: 2026-06-19T16:57:08.265Z)
Latitude
-0.00001°
Longitude
148.95288°
Altitude
464.06 km
Speed
7.635 km/s
True Right ascension
20h 44m 40s
True Declination
0° 00' 00"
Sunlit
Object was in full shadow at epoch
Visualization orbit readout
Latitude
Unknown
Longitude
Unknown
Altitude
Unknown
Speed
Unknown
Apparent Right ascension
Unknown
Apparent Declination
Unknown
Sunlit
N/A
Visualization observer readout
Local Sidereal Time
10:17:12
Azimuth
Unknown
Elevation
Unknown
Doppler factor
Unknown
Orbital elements
Apogee altitude
463.617 km
Perigee altitude
462.31 km
Semi-major axis
6,841.101 km
Eccentricity
0.0001
Inclination
53.1593°
RAAN
311.1688°
Arg. of periapsis
133.8374°
True anomaly
226.26289°
Mean anomaly
226.2708°
Eccentric anomaly
226.26685°
Mean motion
3.83578 °/min
Orbital period
93.85 mins
BSTAR
0.000074885
Loading maneuver chart data...
Computing Atmospheric mass density...
Loading historical data...
Loading historical data...
Loading historical data...
Loading historical data...
Loading historical data...
Loading historical data...
Loading historical data...

Documentation

Showing up to 5 results
|